Погода в Тырке

Погода в Тырке : погода сейчас, прогноз погоды и архив. Всё, что Вы хотите узнать о погоде в Тырке!

Хотите узнать прогноз погоды в Тырке? Тогда Вам сюда: Погода в Тырке

Поиск расширенной информации на нашем сайте:

Другие новости

Новости СМИ2

Главная страница сайта

Новости сайта

03.07.2017

Напоминаем, что на нашем специализированном сайте Метеоцентр.Азия вы можете получить высокодетализированные автоматические прогнозы погоды по пунктам России, СНГ и мира в авиационном формате (включающие направление и скорость ветра, видимость, явления погоды, количество и форму облачности, нижнюю и верхнюю границу облачности).


Погода в Тырке - сегодня

Время (UTC), дата Ветер
(°,м/с) 
Видим.   Явления Облачность Т
(°С)
Тd
(°С)
f(%) Тe
(°С)
Pmin
(гПа)
dP
(гПа)
Po
(мм)
O2
(г/м3)
Тmin Tmax R s Состояние
почвы
03 24.08.17 270 (З) 20000 м  слаб. ливневой дождь  10/10 600 м кучево-дожд. 
[Cb cap]
+9.4 +7.9 90 +9  1015  0.6  704  273           
06 24.08.17 270 (З) 20000 м  {ливн. осадки}  8/8 600 м кучево-дожд., средняя, верхняя 
[Cb cap|Ac trans|Ci fib]
+11.9 +3.9 58 +12  1014.9  0.7  705  271           
09 24.08.17 270 (З) 20000 м    6/4 600 м кучево-дожд., средняя, верхняя 
[Cb cap|Ac trans|Ci fib]
+13 +1.9 47 +13  1014.3  -0.3  704  271           
12 24.08.17 020 (С) 20000 м    8/6 600 м кучево-дожд. 
[Cb cap]
+9.9 +4.3 68 +11  1015  -0.1  704  273    +15  0.6     
15 24.08.17 090 (В) н/о    3/3 600 м 
[Sc diur, vesp]
+4.6 +2.9 89 +5  1015.5  -0.9  704  278           
18 24.08.17 тихо ()   н/о    10/10 600 м кучево-дожд. 
[Cb cap]
+4.7 +3.2 90 +5  1014.6  -0.8  703  278           
21 24.08.17 090 (В) н/о    9/8 600 м кучево-дожд., средняя, верхняя 
[Cb cap|Ac cast|Ci fib]
+4.2 +3.2 93 +5  1013.4  -1.3  702  278           
00 25.08.17 тихо ()   20000 м  ливневой дождь  10/10 600 м кучево-дожд. 
[Cb cap]
+5.9 +4.7 92 +6  1012.6  -0.2  702  276  +3.5    0.7    влажная 
03 25.08.17 тихо ()   20000 м  слаб. ливневой дождь  10/10 300 м кучево-дожд. 
[Cb cap]
+8.5 +7 90 +9  1012.3  0.4  702  273           
06 25.08.17 260 (З) 20000 м  ливневой дождь  8/4 600 м кучево-дожд., средняя, верхняя 
[Cb cap|Ac cast|Ci sp]
+10.1 +9.1 93 +11  1011.9  0.1  702  271           
09 25.08.17 270 (З) 20000 м  в посл. час ливневой дождь  10/8 600 м кучево-дожд., верхняя 
[Cb cap|Ci sp]
+9.7 +6.9 83 +10  1011.6  -0.4  702  272           
12 25.08.17 270 (З) 20000 м  {ливн. осадки}  9/3 600 м кучево-дожд., средняя, верхняя 
[Cb cap|Ac lent|Ci sp]
+8.9 +5.6 80 +10  1011.6  -0.3  702  273    +12.7     
15 25.08.17 270 (З) н/о    9/8 600 м кучево-дожд., средняя, верхняя 
[Cb cap|Ac lent|Ci fib]
+7.5 +5.5 87 +8  1012.4  0.4  702  274           
00 26.08.17 тихо ()   20000 м    8/8 600 м кучево-дожд. 
[Cb cap]
+5.6 +2.9 83 +6  1013.6  0.3  703  277  +5        влажная 
03 26.08.17 300 (СЗ) 20000 м    6/6 600 м кучево-дожд. 
[Cb cap]
+9.4 -2.9 42 +9  1013  0.3  703  274           
06 26.08.17 290 (З) 20000 м    8/6 600 м кучево-дожд., средняя 
[Cb cap|Ac trans]
+10.3 -2.6 40 +10  1012.6  -0.1  703  273           
09 26.08.17 310 (СЗ) 20000 м  осадки на расстоянии  10/10 600 м кучево-дожд. 
[Cb cap]
+8.1 +1.5 63 +8  1013.8  0.6  703  275           
12 26.08.17 350 (С) 20000 м  {ливн. осадки}  10/10 600 м кучево-дожд. 
[Cb cap]
+4.8 +2.1 83 +6  1015.4  0.6  704  278    +12.6  0.1     
15 26.08.17 340 (С) н/о    10/10 600 м кучево-дожд. 
[Cb cap]
+3.2 +0 79 +4  1017.7  1.7  705  281           
18 26.08.17 020 (С) н/о  слаб. ливневой дождь  6/6 600 м кучево-дожд. 
[Cb cap]
+2 -0.2 85 +3  1018.7  0.7  705  282           
21 26.08.17 тихо ()   н/о  {ливн. осадки}  3/3 600 м 
[Sc diur, vesp]
-1.8 -3.3 89 -2  1020.9  0.8  706  287           
00 27.08.17 280 (З) 20000 м  {ливн. осадки}  4/3 600 м верхняя 
[Sc diur, vesp|Ci fib]
+0.6 -2.7 79 -1  1021.9  1.6  707  285  -1.8    0.0    влажная 
03 27.08.17 270 (З) 20000 м    9/9 1000 м кучево-дожд. 
[Cb cap]
+3.2 -1.9 69 +1  1022.3  1.1  708  282           
06 27.08.17 040 (СВ) 20000 м  {ливн. осадки}  9/9 600 м кучево-дожд. 
[Cb cap]
+4.5 -1.2 66 +3  1022.1  1.2  708  281           
15 27.08.17 тихо ()   н/о    ясно 
-2 -3.2 91 -2  1027.5  0.8  711  289           
Время (UTC), дата Ветер
(°,м/с) 
Видим.   Явления Облачность Т
(°С)
Тd
(°С)
f(%) Тe
(°С)
Pmin
(гПа)
dP
(гПа)
Po
(мм)
O2
(г/м3)
Тmin Tmax R s Состояние
почвы

Для получения пояснительной информации подведите курсор к названию столбца.

ПОГОДА в Тырке - архив

Всё, что Вы хотите узнать о погоде в Тырке - удобно и подробно!

Выберите нужную дату (начиная с 1 января 2015* года) и нажмите кнопку "Найти".
Будут отображены архивные сводки погоды по пункту Тырка, начиная с указанной даты.


Отображать данные в формате CSV (для использования в таблицах Excel)


Внимание! Наш архив погоды предназначен исключительно для личного некоммерческого использования в познавательных целях. Если Вам необходимы официальные справки о состоянии погоды (для производственных, юридических, коммерческих и т.п. целей), обращайтесь в органы Росгидромета.

*Примечание: данная дата относится к архиву по метеостанциям СССР (Россия, СНГ, Балтия).
Архив по метеостанциям Зарубежной Европы и Азии (кроме Китая) хранится 10 дней, по другим регионам земного шара (Китай, Африка, Америка, Австралия, Океания) - 1 день.

Тырка - район местоположения метеостанции


Название, широта, долгота, высота метеостанции:
Тырка 54.5°ш. 107.1°д. 650 м над ур. моря [Российская Федерация]

Дополнительная информация

В oтличие oт бoльшинства пoгoдных сайтoв мы публикуем пoдрoбную метеoинфoрмацию в детальнoм прoфессиoнальнoм фoрмате.

Характеристики температуры и влажнoсти вoздуха измеряются на высoте 2 м в тени вдали oт зданий и деревьев.
Скoрoсть ветра измеряется на высoте 10 м (на урoвне рoста челoвека скoрoсть ветра ниже в 1.5-2 раза). Если метеoстанция нахoдится в гoрoде или в лесу, тo скoрoсть ветра занижена на 2-4 м/с пo сравнению с oткрытым местoм. Скoрoсть ветра над акватoриями крупных рек и oзёр, а также на вершинах хoлмoв на 2-5 м/с выше, чем в oбычных услoвиях.
Атмoсфернoе давление в разных тoчках местнoсти мoжет значительнo oтличаться oт давления на метеoстанции, в зависимoсти oт услoвий рельефа (при пoдъёме на 10 м давление пoнижается примернo на 1 мм рт.ст.).